Regional Weather Roundup
Issued by NWS

Home | Current Version | Previous Version | Text Only | Print | Product List | Glossary Off
Versions: 1 2 3 4 5 6 7 8 9 10 11 12 13 14 15 16 17 18 19 20 21 22 23 24 25 26 27 28 29 30 31 32 33 34 35 36 37 38 39 40 41 42 43 44 45 46 47 48 49 50

000
ASUS43 KMPX 252110
RWRMN
WEATHER ROUNDUP FOR MINNESOTA
NATIONAL WEATHER SERVICE TWIN CITIES/CHANHASSEN MN
300 PM CST SUN FEB 25 2018


NOTE: "FAIR" INDICATES FEW OR NO CLOUDS BELOW 12,000 FEET WITH NO
SIGNIFICANT WEATHER AND/OR OBSTRUCTIONS TO VISIBILITY. N/A MEANS
CURRENT SKY AND/OR WEATHER CONDITIONS ARE NOT AVAILABLE.

MNZ060>063-068>070-252200-
   Twin Cities Metro

CITY           SKY/WX    TMP DP  RH WIND       PRES   REMARKS
TWIN CITIES    PTSUNNY   28  21  75 W17       29.81R WCI  16
ST PAUL        PTSUNNY   28  20  71 W12G22    29.82R WCI  18
CRYSTAL        CLOUDY    28  19  69 SW17G24   29.79R WCI  16
BLAINE         CLOUDY    28  21  74 W12G18    29.78R WCI  18
LAKEVILLE      FLURRIES  27  21  80 W14G23    29.82R WCI  15
EDEN PRAIRIE   CLOUDY    29  20  69 W12       29.81R WCI  19
SOUTH ST PAUL  FAIR      29  20  69 W18G26    29.80R HAZE    WCI  17
LAKE ELMO      FAIR      28  21  74 W17       29.80R WCI  16
$$
MNZ001>005-007-008-013>017-022>024-027-028-252200-
   Northwest Minnesota

CITY           SKY/WX    TMP DP  RH WIND       PRES   REMARKS
BEMIDJI        CLOUDY    24  19  81 W17G26    29.62R WCI  11
HALLOCK        FAIR      25  18  74 W6        29.62R WCI  18
ROSEAU         CLOUDY    23  18  80 W13G20    29.58R WCI  11
WARROAD        FAIR      23  16  74 W14G22    29.56R WCI  11
THIEF RVR FALL FLURRIES  24  18  77 W14       29.64R WCI  12
CROOKSTON      FAIR      27  21  80 NW8       29.66R WCI  18
FOSSTON        PTSUNNY   27  18  69 W13       29.65R WCI  16
DETROIT LAKES  FAIR      30  21  69 W14       29.68R WCI  20
MOORHEAD       LGT RAIN  28  19  69 W15G22    29.71R WCI  17
PARK RAPIDS    CLOUDY    27  21  78 W16       29.64R WCI  15
MAHNOMEN       CLOUDY    26  20  79 W16       29.66R WCI  13
$$
MNZ006-009>011-018-025>026-252200-
   North Central Minnesota

CITY           SKY/WX    TMP DP  RH WIND       PRES   REMARKS
BAUDETTE       PTSUNNY   25  14  63 W14       29.53R WCI  13
FLAG ISLAND    CLOUDY    25  18  74 W15       29.51R WCI  12
INTL FALLS     CLOUDY    26  19  74 W13       29.52R WCI  15
WASKISH        PTSUNNY   19  16  86 SW14      29.59R WCI   6
BIG FORK       FAIR      28  16  59 W12G17    29.55R WCI  18
LONGVILLE      PTSUNNY   28  19  69 W8G21     29.62R WCI  20
GRAND RAPIDS   CLOUDY    27  17  66 W12G22    29.61R WCI  17
CRANE LAKE     CLOUDY    27  19  74 W12G20    29.54R WCI  16
ORR            FLURRIES  25  16  68 W8        29.52R WCI  16
COOK           FLURRIES  25  18  74 W13G22    29.55R WCI  13
WALKER         MOCLDY    28  19  68 W10       29.61R WCI  18
$$
MNZ012-019>021-037-252200-
   Northeast Minnesota

CITY           SKY/WX    TMP DP  RH WIND       PRES   REMARKS
DULUTH         PTSUNNY   27  19  72 W22G31    29.58R WCI  13
ELY            CLOUDY    25  19  80 W9        29.51R WCI  15
HIBBING        FAIR      26  16  65 W12G21    29.57R WCI  16
EVELETH        PTSUNNY   25  18  74 W16       29.58R WCI  12
DULUTH HARBOR  PTSUNNY   30  21  69 SW28G33   29.63R WCI  16
TWO HARBORS    CLOUDY    32  21  64 W14G21    29.56R WCI  22
SILVER BAY     CLOUDY    30  19  64 W8G24     29.52R WCI  23
GRAND MARAIS     N/A     31  20  63 W15G29    29.49R WCI  20
G MARAIS ARPRT CLOUDY    25  16  68 W13G24    29.43R WCI  13
$$
MNZ029>031-032-039>041-046>048-054>057-064-252200-
   West Central Minnesota

CITY           SKY/WX    TMP DP  RH WIND       PRES   REMARKS
FERGUS FALLS   FAIR      27  21  80 W14       29.72R WCI  15
WHEATON        SUNNY     28  19  69 W14       29.79R WCI  17
MORRIS         SUNNY     28  19  69 W15       29.76R WCI  17
ALEXANDRIA     FAIR      27  20  75 W17       29.73R WCI  14
ELBOW LAKE     FAIR      27  20  77 SW16      29.75R WCI  14
WADENA         PTSUNNY   27  19  74 W16       29.69R HAZE    WCI  14
GLENWOOD       FAIR      27  19  74 W18       29.75R HAZE    WCI  13
APPLETON       LGT SNOW  30  21  69 W15       29.80R WCI  19
BENSON         SUNNY     28  19  69 W16       29.80R WCI  17
MADISON        SUNNY     32  21  64 W16       29.80R WCI  21
WILLMAR        FAIR      28  21  74 W20       29.82R WCI  15
$$
MNZ033>034-036-042>043-049>051-058-059-252200-
   Central Minnesota

CITY           SKY/WX    TMP DP  RH WIND       PRES   REMARKS
ST CLOUD       PTSUNNY   28  21  75 W20       29.75R WCI  15
SAUK CENTRE    FAIR      28  20  74 W13       29.75R WCI  17
PAYNESVILLE    FAIR      29  23  78 SW17      29.77R WCI  17
PINE RIVER     CLOUDY    27  19  74 W8G18     29.69R WCI  18
BRAINERD       CLOUDY    28  19  69 W15G23    29.68R WCI  16
STAPLES        PTSUNNY   27  19  74 W16       29.69R WCI  14
LONG PRAIRIE   FAIR      28  21  74 SW12      29.73R WCI  18
LITTLE FALLS   PTSUNNY   30  18  59 W12       29.72R WCI  21
LITCHFIELD     FAIR      30  23  74 W9G16     29.80R WCI  22
BUFFALO        PTSUNNY   28  20  70 SW14      29.81R WCI  17
MAPLE LAKE     PTSUNNY   31  23  71 SW10G18   29.80R WCI  22
HUTCHINSON     FAIR      30  23  74 SW13      29.82R WCI  20
$$
MNZ037-044-045-052-053-252200-
   East Central Minnesota

CITY           SKY/WX    TMP DP  RH WIND       PRES   REMARKS
PRINCETON      CLOUDY    28  21  74 SW9G16    29.76R WCI  20
CAMBRIDGE        N/A     28  19  69 SW9G17    29.76R WCI  20
RUSH CITY      CLOUDY    27  19  70 W16G22    29.75R WCI  15
MOOSE LAKE     FAIR      28  18  64 W16G23    29.64R WCI  17
HINCKLEY       CLOUDY    28  19  69 W13       29.71R WCI  18
CLOQUET        FAIR      27  16  63 W13G28    29.62R WCI  16
MCGREGOR       CLOUDY    28  19  69 SW10G20   29.65R WCI  19
$$
MNZ071>073-080-081-089-090-097-098-252200-
   Southwest Minnesota

CITY           SKY/WX    TMP DP  RH WIND       PRES   REMARKS
MONTEVIDEO     SUNNY     36  21  55 W13G18    29.81R
GRANITE FALLS  SUNNY     31  23  72 SW16      29.85R WCI  20
CANBY          SUNNY     30  20  67 SW14      29.84R WCI  19
MARSHALL       SUNNY     30  21  69 W17       29.84R WCI  18
REDWOOD FALLS  SUNNY     30  22  72 W13       29.84R WCI  20
OLIVIA         SUNNY     30  23  74 W12G17    29.82R WCI  21
PIPESTONE      SUNNY     27  19  74 W14       29.86R WCI  15
WORTHINGTON    SUNNY     27  20  75 SW25      29.86R WCI  12
JACKSON        SUNNY     28  21  74 SW16G23   29.89R WCI  17
TRACY          SUNNY     29  22  75 SW18      29.84R WCI  17
SLAYTON        SUNNY     27  20  77 W17G25    29.85R WCI  14
$$
MNZ065>067-074>077-082>085-091>093-252200-
   South Central Minnesota

CITY           SKY/WX    TMP DP  RH WIND       PRES   REMARKS
MANKATO        FAIR      28  22  78 W17G26    29.86R WCI  16
NEW ULM        SUNNY     28  21  74 W17       29.84R WCI  16
ST JAMES       SUNNY     28  21  74 SW18G25   29.88R WCI  16
FAIRMONT       SUNNY     28  22  78 W20G25    29.89R WCI  15
GLENCOE        FAIR      30  23  76 SW12G18   29.82R WCI  20
FARIBAULT      FAIR      28  19  69 SW8G20    29.85R WCI  20
OWATONNA       FAIR      27  19  74 SW18      29.85R WCI  13
WASECA         FAIR      25  19  80 SW16      29.89R WCI  12
ALBERT LEA     FAIR      27  18  69 W12G18    29.88R WCI  16
$$
MNZ078>079-086>088-094>096-252200-
   Southeast Minnesota

CITY           SKY/WX    TMP DP  RH WIND       PRES   REMARKS
ROCHESTER      FAIR      25  19  78 W17G26    29.85R WCI  12
RED WING       CLOUDY    28  18  64 W16G23    29.82R WCI  17
STANTON        FAIR      29  20  69 SW15G21   29.83R WCI  18
DODGE CENTER   FAIR      25  19  80 SW18      29.85R WCI  11
WINONA         FAIR      32  19  59 W13G21    29.85R WCI  22
AUSTIN         FAIR      27  18  69 SW16G22   29.88R WCI  14
PRESTON        FAIR      27  20  75 W16G22    29.87R WCI  14
$$
ABBREVIATIONS USED IN REMARKS
   TC - TEMPERATURES IN CELSIUS
  WCI - WIND CHILL INDEX
   HX - HEAT INDEX
  VSB - VISIBILITY
$$




USA.gov is the U.S. government's official web portal to all federal, state and local government web resources and services.